Location: Winthrop
(48.4780°N, 120.1850°W)
Time: 10:04:32
(UTC-08:00)

Envisat - Visible Passes

Search period start: 22 February 2024 00:00
Search period end: 03 March 2024 00:00
Orbit: 762 x 764 km, 98.3° (Epoch: 21 February)

Date Brightness Start Highest point End Pass type
(mag) Time Alt. Az. Time Alt. Az. Time Alt. Az.
22 Feb 5.8 02:26:25 10° NE 02:27:21 14° NE 02:27:21 14° NE visible
22 Feb 4.1 04:04:39 10° N 04:07:32 33° N 04:07:32 33° N visible
22 Feb 5.0 05:46:47 10° NW 05:47:34 10° NW 05:47:42 10° NW visible
23 Feb 4.5 03:27:17 10° NNE 03:29:55 31° NNE 03:29:55 31° NNE visible
23 Feb 4.5 05:07:16 10° NNW 05:10:06 19° NW 05:10:06 19° NW visible
24 Feb 5.2 02:50:18 10° NNE 02:52:20 21° NE 02:52:20 21° NE visible
24 Feb 4.0 04:29:16 10° N 04:32:30 31° NNW 04:32:30 31° NNW visible
25 Feb 5.9 02:14:00 10° NE 02:14:45 12° NE 02:14:45 12° NE visible
25 Feb 3.9 03:51:42 10° N 03:54:55 39° N 03:54:55 39° N visible
25 Feb 4.8 05:32:39 10° NNW 05:34:53 13° NW 05:35:05 13° NW visible
26 Feb 4.5 03:14:26 10° NNE 03:17:19 32° NE 03:17:19 32° NE visible
26 Feb 4.2 04:54:04 10° N 04:57:30 24° NW 04:57:30 24° NW visible
27 Feb 5.3 02:37:37 10° NE 02:39:44 20° NE 02:39:44 20° NE visible
27 Feb 3.7 04:16:15 10° N 04:19:54 39° NNW 04:19:54 39° NNW visible
28 Feb 6.0 02:01:53 10° ENE 02:02:08 11° ENE 02:02:08 11° ENE visible
28 Feb 3.8 03:38:47 10° NNE 03:42:18 46° NNE 03:42:18 46° NNE visible
28 Feb 4.6 05:19:09 10° NNW 05:22:11 16° NW 05:22:29 16° WNW visible
29 Feb 4.6 03:01:39 10° NNE 03:04:43 31° NE 03:04:43 31° NE visible
29 Feb 3.9 04:40:57 10° N 04:44:53 29° NW 04:44:53 29° NW visible
01 Mar 5.4 02:25:03 10° NE 02:27:07 18° ENE 02:27:07 18° ENE visible
01 Mar 3.4 04:03:15 10° N 04:07:18 49° NNW 04:07:18 49° NNW visible
01 Mar 4.9 05:45:16 10° NW 05:46:11 10° NW 05:47:06 10° WNW visible
02 Mar 3.7 03:25:54 10° NNE 03:29:42 49° NE 03:29:42 49° NE visible
02 Mar 4.3 05:05:51 10° NNW 05:09:27 20° WNW 05:09:53 20° WNW visible
